| time (UTC) | temp C | wind direction | speed KPH | gust KPH | rain 1hr cm | rain 24hr cm | rain mn cm | humidity % | barometer mb |
| 20260901063711 | 12 | 5 | 0.0 | 0.0 | 0.00 | 0.00 | 0.00 | 89 | 1023.8 |
| 20260901063222 | 12 | 5 | 0.0 | 0.0 | 0.00 | 0.00 | 0.00 | 89 | 1023.8 |
| 20260901062725 | 12 | 5 | 0.0 | 0.0 | 0.00 | 0.00 | 0.00 | 88 | 1023.8 |
| 20260901062225 | 12 | 5 | 0.0 | 0.0 | 0.00 | 0.00 | 0.00 | 88 | 1023.7 |
| 20260901061219 | 12 | 5 | 0.0 | 0.0 | 0.00 | 0.00 | 0.00 | 89 | 1023.7 |
| 20260901060729 | 12 | 5 | 0.0 | 0.0 | 0.00 | 0.00 | 0.00 | 88 | 1023.7 |
| 20260901060232 | 12 | 69 | 0.0 | 0.0 | 0.00 | 0.00 | 0.00 | 89 | 1023.7 |
| 20260901055706 | 12 | 70 | 0.0 | 0.0 | 0.00 | 0.00 | 0.00 | 88 | 1023.6 |
| 20260901055216 | 12 | 70 | 0.0 | 0.0 | 0.00 | 0.00 | 0.00 | 88 | 1023.6 |
| 20260901054725 | 12 | 70 | 0.0 | 0.0 | 0.00 | 0.00 | 0.00 | 88 | 1023.5 |
| 20260901054219 | 12 | 70 | 0.0 | 0.0 | 0.00 | 0.00 | 0.00 | 88 | 1023.5 |
| 20260901053721 | 12 | 70 | 0.0 | 0.0 | 0.00 | 0.00 | 0.00 | 88 | 1023.5 |
| 20260901053215 | 12 | 70 | 0.0 | 0.0 | 0.00 | 0.00 | 0.00 | 87 | 1023.5 |
| 20260901052221 | 12 | 346 | 0.0 | 0.0 | 0.00 | 0.00 | 0.00 | 87 | 1023.4 |
| 20260901051722 | 12 | 346 | 0.0 | 0.0 | 0.00 | 0.00 | 0.00 | 87 | 1023.4 |
| 20260901051230 | 12 | 346 | 0.0 | 0.0 | 0.00 | 0.00 | 0.00 | 86 | 1023.4 |
| 20260901050735 | 12 | 346 | 0.0 | 0.0 | 0.00 | 0.00 | 0.00 | 86 | 1023.3 |
| 20260901045716 | 12 | 346 | 0.0 | 0.0 | 0.00 | 0.00 | 0.00 | 86 | 1023.3 |
| 20260901043713 | 12 | 346 | 0.0 | 0.0 | 0.00 | 0.00 | 0.00 | 86 | 1023.3 |
| 20260901043221 | 12 | 346 | 0.0 | 0.0 | 0.00 | 0.00 | 0.00 | 86 | 1023.3 |
| 20260901042718 | 12 | 346 | 0.0 | 0.0 | 0.00 | 0.00 | 0.00 | 86 | 1023.3 |
| 20260901042230 | 12 | 346 | 0.0 | 0.0 | 0.00 | 0.00 | 0.00 | 86 | 1023.3 |
| 20260901041716 | 12 | 346 | 0.0 | 0.0 | 0.00 | 0.00 | 0.00 | 86 | 1023.4 |
| 20260901041223 | 12 | 346 | 0.0 | 0.0 | 0.00 | 0.00 | 0.00 | 86 | 1023.4 |
| 20260901040716 | 12 | 346 | 0.0 | 0.0 | 0.00 | 0.00 | 0.00 | 86 | 1023.3 |
| 20260901035730 | 12 | 346 | 0.0 | 0.0 | 0.00 | 0.00 | 0.00 | 86 | 1023.3 |
| 20260901035226 | 12 | 346 | 0.0 | 0.0 | 0.00 | 0.00 | 0.00 | 86 | 1023.3 |
| 20260901034718 | 12 | 346 | 0.0 | 0.0 | 0.00 | 0.00 | 0.00 | 86 | 1023.3 |
| 20260901034231 | 12 | 346 | 0.0 | 0.0 | 0.00 | 0.00 | 0.00 | 86 | 1023.3 |
| 20260901033723 | 12 | 346 | 0.0 | 0.0 | 0.00 | 0.00 | 0.00 | 86 | 1023.3 |
| 20260901033212 | 12 | 346 | 0.0 | 0.0 | 0.00 | 0.00 | 0.00 | 86 | 1023.3 |
| 20260901032723 | 12 | 346 | 0.0 | 0.0 | 0.00 | 0.00 | 0.00 | 85 | 1023.3 |
| 20260901032216 | 12 | 346 | 0.0 | 0.0 | 0.00 | 0.00 | 0.00 | 85 | 1023.3 |
| 20260901031718 | 12 | 346 | 0.0 | 0.0 | 0.00 | 0.00 | 0.00 | 85 | 1023.3 |
| 20260901031214 | 12 | 346 | 0.0 | 0.0 | 0.00 | 0.00 | 0.00 | 85 | 1023.3 |
| 20260901030727 | 12 | 346 | 0.0 | 0.0 | 0.00 | 0.00 | 0.00 | 85 | 1023.3 |
| 20260901030218 | 12 | 346 | 0.0 | 0.0 | 0.00 | 0.00 | 0.00 | 85 | 1023.3 |
| 20260901025714 | 12 | 346 | 0.0 | 0.0 | 0.00 | 0.00 | 0.00 | 85 | 1023.3 |
| 20260901024726 | 13 | 346 | 0.0 | 0.0 | 0.00 | 0.00 | 0.00 | 85 | 1023.4 |
| 20260901024223 | 13 | 346 | 0.0 | 0.0 | 0.00 | 0.00 | 0.00 | 85 | 1023.4 |
| 20260901023717 | 13 | 346 | 0.0 | 0.0 | 0.00 | 0.00 | 0.00 | 85 | 1023.5 |
| 20260901023229 | 13 | 346 | 0.0 | 0.0 | 0.00 | 0.00 | 0.00 | 84 | 1023.5 |
| 20260901022713 | 13 | 346 | 0.0 | 0.0 | 0.00 | 0.00 | 0.00 | 84 | 1023.5 |
| 20260901022209 | 13 | 346 | 0.0 | 0.0 | 0.00 | 0.00 | 0.00 | 84 | 1023.4 |
| 20260901021728 | 13 | 346 | 0.0 | 0.0 | 0.00 | 0.00 | 0.00 | 83 | 1023.4 |
| 20260901021241 | 13 | 346 | 0.0 | 0.0 | 0.00 | 0.00 | 0.00 | 83 | 1023.4 |
| 20260901020740 | 13 | 346 | 0.0 | 0.0 | 0.00 | 0.00 | 0.00 | 82 | 1023.4 |
| 20260901020212 | 13 | 346 | 0.0 | 0.0 | 0.00 | 0.00 | 0.00 | 83 | 1023.4 |
| 20260901015724 | 13 | 346 | 0.0 | 0.0 | 0.00 | 0.00 | 0.00 | 83 | 1023.4 |
| 20260901014723 | 13 | 346 | 0.0 | 0.0 | 0.00 | 0.00 | 0.00 | 83 | 1023.4 |
| 20260901014222 | 13 | 346 | 0.0 | 0.0 | 0.00 | 0.00 | 0.00 | 83 | 1023.4 |
| 20260901013208 | 13 | 86 | 0.0 | 0.0 | 0.00 | 0.00 | 0.00 | 82 | 1023.4 |
| 20260901012719 | 13 | 86 | 0.0 | 0.0 | 0.00 | 0.00 | 0.00 | 82 | 1023.4 |
| 20260901012213 | 13 | 86 | 0.0 | 0.0 | 0.00 | 0.00 | 0.00 | 82 | 1023.3 |
| 20260901011721 | 13 | 86 | 0.0 | 0.0 | 0.00 | 0.00 | 0.00 | 82 | 1023.3 |
| 20260901010727 | 13 | 86 | 0.0 | 0.0 | 0.00 | 0.00 | 0.00 | 82 | 1023.2 |
| 20260901010223 | 13 | 86 | 0.0 | 0.0 | 0.00 | 0.00 | 0.00 | 82 | 1023.1 |
| 20260901005715 | 13 | 86 | 0.0 | 0.0 | 0.00 | 0.00 | 0.00 | 82 | 1023.2 |
| 20260901005213 | 13 | 355 | 0.0 | 0.0 | 0.00 | 0.00 | 0.00 | 82 | 1023.2 |
| 20260901004719 | 13 | 348 | 0.0 | 0.0 | 0.00 | 0.00 | 0.00 | 81 | 1023.2 |
| 20260901004213 | 13 | 333 | 0.0 | 0.0 | 0.00 | 0.00 | 0.00 | 81 | 1023.1 |
| 20260901003209 | 13 | 325 | 0.0 | 0.0 | 0.00 | 0.00 | 0.00 | 81 | 1023.2 |
| 20260901002728 | 13 | 325 | 0.0 | 0.0 | 0.00 | 0.00 | 0.00 | 80 | 1023.2 |
| 20260901002215 | 13 | 325 | 0.0 | 4.8 | 0.00 | 0.00 | 0.00 | 80 | 1023.3 |
| 20260901001723 | 13 | 113 | 0.0 | 4.8 | 0.00 | 0.00 | 0.00 | 80 | 1023.3 |
| 20260901001226 | 13 | 113 | 1.6 | 4.8 | 0.00 | 0.00 | 0.00 | 79 | 1023.2 |
| 20260901000712 | 13 | 155 | 1.6 | 3.2 | 0.00 | 0.00 | 0.00 | 79 | 1023.3 |
| 20260901000220 | 13 | 164 | 0.0 | 3.2 | 0.00 | 0.00 | 0.00 | 79 | 1023.3 |
| 20260831235723 | 13 | 164 | 0.0 | 3.2 | 0.00 | 0.00 | 0.00 | 79 | 1023.3 |
| 20260831235222 | 13 | 164 | 0.0 | 3.2 | 0.00 | 0.00 | 0.00 | 79 | 1023.3 |
| 20260831234715 | 13 | 164 | 0.0 | 3.2 | 0.00 | 0.03 | 0.00 | 78 | 1023.3 |
| 20260831234220 | 13 | 164 | 0.0 | 3.2 | 0.00 | 0.03 | 0.00 | 79 | 1023.2 |
| 20260831233719 | 13 | 48 | 0.0 | 3.2 | 0.00 | 0.05 | 0.00 | 79 | 1023.3 |
| 20260831233224 | 13 | 33 | 0.0 | 12.9 | 0.00 | 0.05 | 0.00 | 79 | 1023.3 |
| 20260831232722 | 13 | 36 | 1.6 | 12.9 | 0.00 | 0.13 | 0.00 | 80 | 1023.1 |
| 20260831232225 | 13 | 335 | 3.2 | 12.9 | 0.00 | 0.15 | 0.00 | 78 | 1023.1 |
| 20260831231719 | 13 | 350 | 3.2 | 12.9 | 0.00 | 0.15 | 0.00 | 78 | 1023.2 |
| 20260831230717 | 13 | 335 | 0.0 | 0.0 | 0.00 | 0.15 | 0.00 | 80 | 1023.1 |
| 20260831230237 | 13 | 323 | 0.0 | 0.0 | 0.00 | 0.18 | 0.00 | 80 | 1023.2 |
| 20260831225719 | 13 | 350 | 0.0 | 0.0 | 0.00 | 0.18 | 0.00 | 80 | 1023.3 |
| 20260831225233 | 13 | 5 | 0.0 | 0.0 | 0.00 | 0.18 | 0.00 | 80 | 1023.4 |
| 20260831224720 | 13 | 5 | 0.0 | 0.0 | 0.00 | 0.18 | 0.00 | 80 | 1023.4 |
| 20260831224212 | 13 | 5 | 0.0 | 0.0 | 0.00 | 0.18 | 0.00 | 78 | 1023.4 |
| 20260831223726 | 13 | 5 | 0.0 | 0.0 | 0.00 | 0.18 | 0.00 | 77 | 1023.5 |
| 20260831223217 | 13 | 44 | 0.0 | 0.0 | 0.00 | 0.30 | 0.00 | 76 | 1023.5 |
| 20260831222716 | 13 | 44 | 0.0 | 0.0 | 0.00 | 0.56 | 0.00 | 76 | 1023.5 |
| 20260831221719 | 14 | 341 | 0.0 | 0.0 | 0.00 | 0.79 | 0.00 | 75 | 1023.4 |
| 20260831221209 | 14 | 342 | 0.0 | 0.0 | 0.00 | 0.79 | 0.00 | 75 | 1023.4 |
| 20260831220720 | 14 | 355 | 0.0 | 0.0 | 0.00 | 0.79 | 0.00 | 74 | 1023.4 |
| 20260831220226 | 14 | 355 | 0.0 | 0.0 | 0.00 | 0.79 | 0.79 | 74 | 1023.4 |
| 20260831215211 | 15 | 336 | 0.0 | 0.0 | 0.00 | 0.79 | 0.79 | 73 | 1023.3 |
| 20260831214728 | 15 | 49 | 0.0 | 0.0 | 0.00 | 0.79 | 0.79 | 73 | 1023.3 |
| 20260831214220 | 15 | 37 | 0.0 | 0.0 | 0.00 | 0.79 | 0.79 | 72 | 1023.3 |
| 20260831213221 | 15 | 38 | 0.0 | 0.0 | 0.00 | 0.79 | 0.79 | 72 | 1023.3 |
| 20260831212725 | 15 | 38 | 0.0 | 0.0 | 0.00 | 0.79 | 0.79 | 72 | 1023.3 |
| 20260831211718 | 15 | 49 | 0.0 | 0.0 | 0.00 | 0.79 | 0.79 | 72 | 1023.4 |
| 20260831211219 | 15 | 302 | 0.0 | 0.0 | 0.00 | 0.79 | 0.79 | 71 | 1023.4 |
| 20260831210723 | 15 | 302 | 0.0 | 0.0 | 0.00 | 0.79 | 0.79 | 71 | 1023.4 |
| 20260831210224 | 15 | 302 | 0.0 | 0.0 | 0.00 | 0.79 | 0.79 | 70 | 1023.4 |
| 20260831205218 | 16 | 344 | 0.0 | 16.1 | 0.00 | 0.79 | 0.79 | 69 | 1023.2 |
| 20260831204717 | 16 | 121 | 0.0 | 16.1 | 0.00 | 0.79 | 0.79 | 68 | 1023.2 |
| 20260831204217 | 16 | 134 | 1.6 | 20.9 | 0.00 | 0.79 | 0.79 | 67 | 1023.1 |
| 20260831203718 | 16 | 99 | 3.2 | 20.9 | 0.00 | 0.79 | 0.79 | 67 | 1023.2 |
| 20260831203218 | 16 | 310 | 3.2 | 24.1 | 0.00 | 0.79 | 0.79 | 67 | 1023.2 |
| 20260831202214 | 16 | 72 | 3.2 | 24.1 | 0.00 | 0.79 | 0.79 | 66 | 1022.8 |
| 20260831201720 | 16 | 310 | 3.2 | 24.1 | 0.00 | 0.79 | 0.79 | 66 | 1022.8 |
| 20260831201219 | 16 | 64 | 0.0 | 3.2 | 0.00 | 0.79 | 0.79 | 67 | 1023.0 |
| 20260831200715 | 16 | 81 | 0.0 | 3.2 | 0.00 | 0.79 | 0.79 | 67 | 1022.8 |
| 20260831200223 | 16 | 168 | 0.0 | 11.3 | 0.00 | 0.79 | 0.79 | 66 | 1022.7 |
| 20260831195724 | 16 | 126 | 0.0 | 11.3 | 0.00 | 0.79 | 0.79 | 66 | 1022.7 |
| 20260831195217 | 16 | 110 | 0.0 | 0.0 | 0.00 | 0.79 | 0.79 | 66 | 1022.6 |
| 20260831194724 | 16 | 48 | 0.0 | 0.0 | 0.00 | 0.79 | 0.79 | 65 | 1022.6 |
| 20260831194216 | 17 | 121 | 0.0 | 16.1 | 0.00 | 0.79 | 0.79 | 66 | 1022.4 |
| 20260831193713 | 17 | 123 | 0.0 | 16.1 | 0.00 | 0.79 | 0.79 | 65 | 1022.3 |
| 20260831193226 | 17 | 105 | 1.6 | 16.1 | 0.00 | 0.79 | 0.79 | 65 | 1022.2 |
| 20260831192226 | 17 | 81 | 1.6 | 22.5 | 0.00 | 0.79 | 0.79 | 65 | 1022.2 |
| 20260831191721 | 16 | 20 | 3.2 | 22.5 | 0.00 | 0.79 | 0.79 | 65 | 1022.2 |
| 20260831191229 | 16 | 13 | 6.4 | 17.7 | 0.00 | 0.79 | 0.79 | 65 | 1022.3 |
| 20260831190714 | 16 | 0 | 3.2 | 17.7 | 0.00 | 0.79 | 0.79 | 65 | 1022.2 |
| 20260831190216 | 16 | 345 | 0.0 | 22.5 | 0.00 | 0.79 | 0.79 | 66 | 1022.1 |
| 20260831185721 | 16 | 5 | 1.6 | 22.5 | 0.00 | 0.79 | 0.79 | 66 | 1022.0 |
| 20260831185217 | 16 | 61 | 3.2 | 14.5 | 0.00 | 0.79 | 0.79 | 66 | 1022.0 |
| 20260831184710 | 16 | 71 | 4.8 | 14.5 | 0.00 | 0.79 | 0.79 | 66 | 1021.9 |
| 20260831184209 | 16 | 355 | 3.2 | 14.5 | 0.00 | 0.79 | 0.79 | 66 | 1021.8 |
| 20260831183718 | 16 | 9 | 1.6 | 14.5 | 0.00 | 0.79 | 0.79 | 66 | 1021.5 |
| 20260831183220 | 16 | 33 | 0.0 | 8.0 | 0.00 | 0.79 | 0.79 | 65 | 1021.5 |
| 20260831182226 | 17 | 326 | 0.0 | 8.0 | 0.00 | 0.79 | 0.79 | 65 | 1021.4 |
| 20260831181718 | 17 | 111 | 0.0 | 8.0 | 0.00 | 0.79 | 0.79 | 64 | 1021.3 |
| 20260831181222 | 17 | 349 | 0.0 | 0.0 | 0.00 | 0.79 | 0.79 | 64 | 1021.3 |
| 20260831180727 | 17 | 74 | 0.0 | 0.0 | 0.00 | 0.79 | 0.79 | 64 | 1021.2 |
| 20260831180233 | 17 | 329 | 0.0 | 22.5 | 0.00 | 0.79 | 0.79 | 64 | 1021.2 |
| 20260831175721 | 17 | 144 | 0.0 | 22.5 | 0.00 | 0.79 | 0.79 | 64 | 1021.2 |
| 20260831175223 | 17 | 309 | 4.8 | 22.5 | 0.00 | 0.79 | 0.79 | 63 | 1021.2 |
| 20260831174726 | 17 | 326 | 6.4 | 22.5 | 0.00 | 0.79 | 0.79 | 62 | 1021.2 |
| 20260831174224 | 17 | 346 | 4.8 | 16.1 | 0.00 | 0.79 | 0.79 | 62 | 1021.2 |
| 20260831173220 | 17 | 348 | 3.2 | 17.7 | 0.00 | 0.79 | 0.79 | 62 | 1021.2 |
| 20260831172717 | 17 | 351 | 3.2 | 17.7 | 0.00 | 0.79 | 0.79 | 61 | 1021.1 |
| 20260831172234 | 17 | 5 | 1.6 | 27.4 | 0.00 | 0.79 | 0.79 | 61 | 1021.2 |
| 20260831171720 | 17 | 265 | 4.8 | 27.4 | 0.00 | 0.79 | 0.79 | 60 | 1021.2 |
| 20260831171226 | 18 | 241 | 4.8 | 29.0 | 0.00 | 0.79 | 0.79 | 60 | 1021.3 |
| 20260831170713 | 18 | 50 | 4.8 | 29.0 | 0.00 | 0.79 | 0.79 | 60 | 1021.2 |
| 20260831170218 | 18 | 41 | 8.0 | 29.0 | 0.00 | 0.79 | 0.79 | 60 | 1021.3 |
| 20260831165729 | 18 | 355 | 6.4 | 29.0 | 0.00 | 0.79 | 0.79 | 59 | 1021.3 |
| 20260831165224 | 18 | 88 | 4.8 | 20.9 | 0.00 | 0.79 | 0.79 | 58 | 1021.4 |
| 20260831164724 | 18 | 331 | 6.4 | 20.9 | 0.00 | 0.79 | 0.79 | 57 | 1021.4 |
| 20260831164227 | 18 | 80 | 4.8 | 32.2 | 0.00 | 0.79 | 0.79 | 57 | 1021.4 |
| 20260831163707 | 18 | 319 | 3.2 | 32.2 | 0.00 | 0.79 | 0.79 | 57 | 1021.4 |
| 20260831163210 | 18 | 250 | 4.8 | 32.2 | 0.00 | 0.79 | 0.79 | 55 | 1021.5 |
| 20260831161716 | 20 | 84 | 11.3 | 35.4 | 0.00 | 0.79 | 0.79 | 53 | 1021.3 |
| 20260831161227 | 20 | 72 | 11.3 | 37.0 | 0.00 | 0.79 | 0.79 | 53 | 1021.3 |
| 20260831160723 | 20 | 314 | 9.7 | 37.0 | 0.00 | 0.79 | 0.79 | 53 | 1021.0 |
| 20260831160221 | 20 | 136 | 8.0 | 24.1 | 0.00 | 0.79 | 0.79 | 53 | 1020.9 |
| 20260831155725 | 20 | 65 | 6.4 | 24.1 | 0.00 | 0.79 | 0.79 | 55 | 1021.0 |
| 20260831154709 | 19 | 151 | 3.2 | 24.1 | 0.00 | 0.79 | 0.79 | 59 | 1020.5 |
| 20260831154227 | 19 | 140 | 4.8 | 33.8 | 0.00 | 0.79 | 0.79 | 62 | 1020.7 |
| 20260831153723 | 18 | 163 | 11.3 | 33.8 | 0.00 | 0.79 | 0.79 | 62 | 1020.8 |
| 20260831152720 | 18 | 317 | 9.7 | 24.1 | 0.00 | 0.79 | 0.79 | 61 | 1020.9 |
| 20260831152224 | 19 | 312 | 9.7 | 32.2 | 0.00 | 0.79 | 0.79 | 61 | 1020.9 |
| 20260831151217 | 18 | 46 | 8.0 | 24.1 | 0.00 | 0.79 | 0.79 | 62 | 1020.8 |
| 20260831150713 | 19 | 40 | 4.8 | 24.1 | 0.00 | 0.79 | 0.79 | 60 | 1020.9 |
| 20260831145717 | 19 | 334 | 8.0 | 30.6 | 0.00 | 0.79 | 0.79 | 61 | 1020.7 |
| 20260831145216 | 19 | 14 | 9.7 | 25.7 | 0.00 | 0.79 | 0.79 | 61 | 1020.6 |
| 20260831144219 | 19 | 84 | 6.4 | 25.7 | 0.00 | 0.79 | 0.79 | 60 | 1020.6 |
| 20260831143741 | 19 | 267 | 8.0 | 25.7 | 0.00 | 0.79 | 0.79 | 60 | 1020.6 |
| 20260831143226 | 19 | 24 | 6.4 | 32.2 | 0.00 | 0.79 | 0.79 | 61 | 1020.5 |
| 20260831142708 | 19 | 325 | 6.4 | 32.2 | 0.00 | 0.79 | 0.79 | 59 | 1020.7 |
| 20260831141728 | 19 | 355 | 14.5 | 38.6 | 0.00 | 0.79 | 0.79 | 59 | 1020.6 |
| 20260831141213 | 19 | 345 | 12.9 | 25.7 | 0.00 | 0.79 | 0.79 | 59 | 1020.6 |
| 20260831140713 | 19 | 345 | 8.0 | 25.7 | 0.00 | 0.79 | 0.79 | 59 | 1020.5 |
| 20260831140227 | 19 | 19 | 4.8 | 29.0 | 0.00 | 0.79 | 0.79 | 59 | 1020.6 |
| 20260831135222 | 19 | 239 | 9.7 | 41.8 | 0.00 | 0.79 | 0.79 | 58 | 1020.5 |
| 20260831134717 | 20 | 16 | 6.4 | 41.8 | 0.00 | 0.79 | 0.79 | 57 | 1020.6 |
| 20260831134226 | 20 | 71 | 9.7 | 32.2 | 0.00 | 0.79 | 0.79 | 57 | 1020.4 |
| 20260831133719 | 19 | 48 | 9.7 | 32.2 | 0.00 | 0.79 | 0.79 | 57 | 1020.6 |
| 20260831133217 | 20 | 5 | 11.3 | 25.7 | 0.00 | 0.79 | 0.79 | 57 | 1020.6 |
| 20260831132718 | 20 | 22 | 9.7 | 25.7 | 0.00 | 0.79 | 0.79 | 55 | 1020.7 |
| 20260831132233 | 20 | 13 | 6.4 | 22.5 | 0.00 | 0.79 | 0.79 | 56 | 1020.6 |
| 20260831131715 | 20 | 34 | 4.8 | 22.5 | 0.00 | 0.79 | 0.79 | 56 | 1020.6 |
| 20260831131208 | 20 | 327 | 4.8 | 17.7 | 0.00 | 0.79 | 0.79 | 55 | 1020.5 |
| 20260831130719 | 20 | 217 | 4.8 | 17.7 | 0.00 | 0.79 | 0.79 | 57 | 1020.5 |
| 20260831130217 | 20 | 143 | 6.4 | 20.9 | 0.00 | 0.79 | 0.79 | 57 | 1020.4 |
| 20260831125726 | 20 | 152 | 6.4 | 20.9 | 0.00 | 0.79 | 0.79 | 59 | 1020.4 |
| 20260831125228 | 20 | 163 | 6.4 | 24.1 | 0.00 | 0.79 | 0.79 | 57 | 1020.5 |
| 20260831124717 | 19 | 118 | 8.0 | 24.1 | 0.00 | 0.79 | 0.79 | 60 | 1020.3 |
| 20260831124218 | 20 | 204 | 11.3 | 25.7 | 0.00 | 0.79 | 0.79 | 56 | 1020.6 |
| 20260831123228 | 20 | 153 | 9.7 | 25.7 | 0.00 | 0.79 | 0.79 | 58 | 1020.5 |
| 20260831122716 | 19 | 198 | 12.9 | 25.7 | 0.00 | 0.79 | 0.79 | 57 | 1020.5 |
| 20260831121747 | 20 | 178 | 3.2 | 24.1 | 0.00 | 0.79 | 0.79 | 58 | 1020.5 |
| 20260831121220 | 18 | 111 | 6.4 | 30.6 | 0.00 | 0.79 | 0.79 | 62 | 1020.6 |
| 20260831120713 | 18 | 336 | 9.7 | 30.6 | 0.00 | 0.79 | 0.79 | 64 | 1020.7 |
| 20260831120213 | 18 | 65 | 14.5 | 32.2 | 0.00 | 0.79 | 0.79 | 65 | 1020.7 |
| 20260831115712 | 18 | 328 | 17.7 | 32.2 | 0.00 | 0.79 | 0.79 | 64 | 1020.7 |
| 20260831114722 | 18 | 5 | 16.1 | 32.2 | 0.00 | 0.79 | 0.79 | 63 | 1020.7 |
| 20260831112717 | 18 | 304 | 11.3 | 30.6 | 0.00 | 0.79 | 0.79 | 63 | 1021.0 |
| 20260831111222 | 18 | 0 | 11.3 | 35.4 | 0.00 | 0.79 | 0.79 | 66 | 1020.8 |
| 20260831110230 | 18 | 346 | 16.1 | 30.6 | 0.00 | 0.79 | 0.79 | 67 | 1020.6 |
| 20260831105224 | 18 | 15 | 8.0 | 22.5 | 0.00 | 0.79 | 0.79 | 64 | 1020.6 |
| 20260831104720 | 18 | 355 | 3.2 | 22.5 | 0.00 | 0.79 | 0.79 | 65 | 1020.5 |
| 20260831104229 | 18 | 217 | 3.2 | 20.9 | 0.00 | 0.79 | 0.79 | 65 | 1020.6 |
| 20260831103220 | 18 | 52 | 4.8 | 30.6 | 0.00 | 0.79 | 0.79 | 63 | 1020.6 |
| 20260831102727 | 18 | 113 | 6.4 | 30.6 | 0.00 | 0.79 | 0.79 | 64 | 1020.6 |
| 20260831101711 | 18 | 75 | 9.7 | 35.4 | 0.00 | 0.79 | 0.79 | 62 | 1020.5 |
| 20260831100722 | 18 | 326 | 4.8 | 35.4 | 0.00 | 0.79 | 0.79 | 62 | 1020.7 |
| 20260831100211 | 18 | 119 | 8.0 | 25.7 | 0.00 | 0.79 | 0.79 | 64 | 1020.4 |
| 20260831095719 | 18 | 108 | 9.7 | 25.7 | 0.00 | 0.79 | 0.79 | 64 | 1020.5 |
| 20260831095232 | 18 | 165 | 8.0 | 17.7 | 0.00 | 0.79 | 0.79 | 67 | 1020.4 |
| 20260831094725 | 18 | 132 | 6.4 | 17.7 | 0.00 | 0.79 | 0.79 | 68 | 1020.5 |
| 20260831094228 | 17 | 171 | 6.4 | 17.7 | 0.00 | 0.79 | 0.79 | 70 | 1020.5 |
| 20260831093709 | 17 | 107 | 8.0 | 17.7 | 0.00 | 0.79 | 0.79 | 72 | 1020.6 |
| 20260831092213 | 16 | 163 | 4.8 | 19.3 | 0.00 | 0.79 | 0.79 | 72 | 1020.6 |
| 20260831091726 | 16 | 167 | 6.4 | 19.3 | 0.00 | 0.79 | 0.79 | 72 | 1020.6 |
| 20260831090717 | 16 | 142 | 6.4 | 19.3 | 0.00 | 0.79 | 0.79 | 73 | 1020.5 |
| 20260831090226 | 16 | 197 | 6.4 | 16.1 | 0.00 | 0.79 | 0.79 | 74 | 1020.5 |
| 20260831085726 | 16 | 182 | 8.0 | 16.1 | 0.00 | 0.79 | 0.79 | 73 | 1020.5 |
| 20260831084225 | 16 | 140 | 3.2 | 17.7 | 0.00 | 0.79 | 0.79 | 75 | 1020.3 |
| 20260831083725 | 16 | 100 | 3.2 | 17.7 | 0.00 | 0.79 | 0.79 | 74 | 1020.3 |
| 20260831083216 | 16 | 122 | 3.2 | 14.5 | 0.00 | 0.79 | 0.79 | 75 | 1020.1 |
| 20260831082729 | 15 | 152 | 3.2 | 14.5 | 0.00 | 0.79 | 0.79 | 76 | 1020.1 |
| 20260831082220 | 15 | 165 | 6.4 | 14.5 | 0.00 | 0.79 | 0.79 | 77 | 1020.1 |
| 20260831081231 | 15 | 171 | 6.4 | 16.1 | 0.00 | 0.79 | 0.79 | 77 | 1020.1 |
| 20260831080720 | 15 | 119 | 4.8 | 16.1 | 0.00 | 0.79 | 0.79 | 79 | 1020.1 |
| 20260831080217 | 15 | 65 | 3.2 | 12.9 | 0.00 | 0.79 | 0.79 | 78 | 1020.1 |
| 20260831075716 | 15 | 152 | 3.2 | 12.9 | 0.00 | 0.79 | 0.79 | 79 | 1020.0 |
| 20260831075210 | 15 | 157 | 4.8 | 16.1 | 0.00 | 0.79 | 0.79 | 79 | 1020.0 |
| 20260831074727 | 15 | 182 | 4.8 | 16.1 | 0.00 | 0.79 | 0.79 | 78 | 1020.0 |
| 20260831074208 | 15 | 190 | 4.8 | 19.3 | 0.00 | 0.79 | 0.79 | 78 | 1019.9 |
| 20260831073708 | 15 | 136 | 6.4 | 19.3 | 0.00 | 0.79 | 0.79 | 78 | 1019.9 |
| 20260831072729 | 14 | 174 | 6.4 | 19.3 | 0.00 | 0.79 | 0.79 | 79 | 1019.8 |
| 20260831071725 | 14 | 157 | 6.4 | 14.5 | 0.00 | 0.79 | 0.79 | 79 | 1019.8 |
| 20260831071218 | 14 | 171 | 6.4 | 17.7 | 0.00 | 0.79 | 0.79 | 80 | 1019.7 |
| 20260831070715 | 14 | 188 | 6.4 | 17.7 | 0.00 | 0.79 | 0.79 | 81 | 1019.7 |
| 20260831065721 | 14 | 139 | 6.4 | 17.7 | 0.00 | 0.79 | 0.79 | 81 | 1019.7 |
| 20260831065212 | 14 | 180 | 4.8 | 14.5 | 0.00 | 0.79 | 0.79 | 81 | 1019.7 |
| 20260831064224 | 14 | 169 | 3.2 | 12.9 | 0.00 | 0.79 | 0.79 | 80 | 1019.6 |